This demonstration page uses our WeatherBlox Daily Observations layout. Learn more.

39.29038, -76.61219

Hourly Observations for April 8, 2018

Temp ( °F °C ) Dew Point ( °F °C ) Humidity (%) Winds ( mph kmh ) Pressure ( in mb ) Visibility ( mi km ) Precip ( " mm )
12:54 am 00:54 undefined 41 5 17 -8.3 38 38 undefined N/A 29.9 1013 N/A 0 0
1:54 am 01:54 undefined 39 3.9 17 -8.3 41 41 undefined N/A 29.9 1013 N/A 0 0
2:54 am 02:54 undefined 38 3.3 18 -7.8 44 44 undefined N/A 29.9 1012 N/A 0 0
3:54 am 03:54 undefined 37 2.8 17 -8.3 44 44 undefined N/A 29.89 1012 N/A 0 0
4:54 am 04:54 undefined 37 2.8 17 -8.3 44 44 undefined N/A 29.91 1013 N/A 0 0
5:54 am 05:54 undefined 36 2.2 17 -8.3 46 46 undefined N/A 29.92 1013 N/A 0 0
6:54 am 06:54 undefined 35 1.7 16 -8.9 46 46 undefined N/A 29.93 1014 N/A 0 0
7:54 am 07:54 undefined 37 2.8 17 -8.3 44 44 undefined N/A 29.96 1015 N/A 0 0
8:54 am 08:54 undefined 38 3.3 15 -9.4 39 39 undefined N/A 29.97 1015 N/A 0 0
9:54 am 09:54 undefined 40 4.4 15 -9.4 36 36 undefined N/A 29.97 1015 N/A 0 0
10:54 am 10:54 undefined 42 5.6 15 -9.4 33 33 undefined N/A 29.98 1015 N/A 0 0
11:54 am 11:54 undefined 44 6.7 13 -10.6 28 28 undefined N/A 29.97 1015 N/A 0 0
12:54 pm 12:54 undefined 44 6.7 13 -10.6 28 28 undefined N/A 29.95 1014 N/A 0 0
1:54 pm 13:54 undefined 46 7.8 14 -10 27 27 undefined N/A 29.94 1014 N/A 0 0
2:54 pm 14:54 undefined 47 8.3 13 -10.6 25 25 undefined N/A 29.93 1014 N/A 0 0
3:54 pm 15:54 undefined 49 9.4 14 -10 25 25 undefined N/A 29.94 1014 N/A 0 0
4:54 pm 16:54 undefined 49 9.4 15 -9.4 26 26 undefined N/A 29.95 1014 N/A 0 0
5:54 pm 17:54 undefined 48 8.9 13 -10.6 24 24 undefined N/A 29.97 1015 N/A 0 0
6:54 pm 18:54 undefined 47 8.3 13 -10.6 25 25 undefined N/A 29.99 1016 N/A 0 0
7:54 pm 19:54 undefined 45 7.2 13 -10.6 27 27 undefined N/A 30.01 1016 N/A 0 0
8:54 pm 20:54 undefined 44 6.7 13 -10.6 28 28 undefined N/A 30.04 1017 N/A 0 0
9:54 pm 21:54 undefined 43 6.1 13 -10.6 29 29 undefined N/A 30.07 1018 N/A 0 0
10:54 pm 22:54 undefined 42 5.6 13 -10.6 30 30 undefined N/A 30.08 1019 N/A 0 0
11:54 pm 23:54 undefined 41 5 14 -10 33 33 undefined N/A 30.09 1019 N/A 0 0

Powered by AerisWeather